Tabellarische Ansicht des 29.3.2023


Die einzelnen Werte des Tages

Uhrzeit Temperatur Luftdruck Luftfeuchte Wind Hi-Wind Taupunkt THW Index Wind Chill Heat Index Solar- strahlung Regen

00:00

5.3 C

1016.0 hpa

70 %

3.2 km/h aus 113

8.0 km/h aus SE

0.3 C

5.0 C

5.3 C

5.0 C

0 W/m

0.00 mm

00:05

5.4 C

1016.0 hpa

68 %

3.2 km/h aus 116

8.0 km/h aus SE

0.0 C

5.1 C

5.4 C

5.1 C

0 W/m

0.00 mm

00:10

5.4 C

1016.0 hpa

68 %

1.6 km/h aus 116

11.3 km/h aus E

0.0 C

5.1 C

5.4 C

5.1 C

0 W/m

0.00 mm

00:15

5.5 C

1015.8 hpa

69 %

0.0 km/h aus 117

3.2 km/h aus ESE

0.3 C

5.2 C

5.5 C

5.2 C

0 W/m

0.00 mm

00:20

5.5 C

1015.8 hpa

69 %

0.0 km/h aus 117

0.0 km/h aus ---

0.3 C

5.2 C

5.5 C

5.2 C

0 W/m

0.00 mm

00:25

5.6 C

1015.8 hpa

68 %

0.0 km/h aus 115

0.0 km/h aus ---

0.1 C

5.2 C

5.6 C

5.2 C

0 W/m

0.00 mm

00:30

5.6 C

1015.7 hpa

67 %

0.0 km/h aus 114

0.0 km/h aus ---

-0.1 C

5.2 C

5.6 C

5.2 C

0 W/m

0.00 mm

00:35

5.6 C

1015.7 hpa

66 %

1.6 km/h aus 117

4.8 km/h aus E

-0.3 C

5.2 C

5.6 C

5.2 C

0 W/m

0.00 mm

00:40

5.7 C

1015.7 hpa

66 %

1.6 km/h aus 117

6.4 km/h aus SSE

-0.2 C

5.3 C

5.7 C

5.3 C

0 W/m

0.00 mm

00:45

5.7 C

1015.7 hpa

65 %

0.0 km/h aus 118

3.2 km/h aus SSE

-0.4 C

5.3 C

5.7 C

5.3 C

0 W/m

0.00 mm

00:50

5.8 C

1015.7 hpa

66 %

0.0 km/h aus 117

0.0 km/h aus ---

-0.1 C

5.4 C

5.8 C

5.4 C

0 W/m

0.00 mm

00:55

5.8 C

1015.7 hpa

66 %

3.2 km/h aus 115

19.3 km/h aus SSW

-0.1 C

5.4 C

5.8 C

5.4 C

0 W/m

0.00 mm

01:00

5.8 C

1015.6 hpa

66 %

11.3 km/h aus 114

19.3 km/h aus SSE

0.0 C

3.1 C

3.4 C

5.4 C

0 W/m

0.00 mm

01:05

5.9 C

1015.6 hpa

65 %

16.1 km/h aus 117

27.4 km/h aus S

-0.1 C

2.3 C

2.7 C

5.6 C

0 W/m

0.00 mm

01:10

6.0 C

1015.6 hpa

65 %

16.1 km/h aus 117

27.4 km/h aus SW

-0.1 C

2.3 C

2.7 C

5.6 C

0 W/m

0.00 mm

01:15

6.2 C

1015.6 hpa

64 %

12.9 km/h aus 116

25.7 km/h aus S

-0.1 C

3.1 C

3.5 C

5.8 C

0 W/m

0.00 mm

01:20

6.3 C

1015.6 hpa

63 %

14.5 km/h aus 117

24.1 km/h aus SW

-0.3 C

2.9 C

3.3 C

5.9 C

0 W/m

0.00 mm

01:25

6.4 C

1015.6 hpa

63 %

12.9 km/h aus 115

24.1 km/h aus SSW

-0.1 C

3.4 C

3.8 C

6.0 C

0 W/m

0.00 mm

01:30

6.5 C

1015.6 hpa

63 %

11.3 km/h aus 114

20.9 km/h aus SSW

0.0 C

3.8 C

4.2 C

6.1 C

0 W/m

0.00 mm

01:35

6.5 C

1015.6 hpa

63 %

12.9 km/h aus 117

20.9 km/h aus SW

0.0 C

3.5 C

3.9 C

6.1 C

0 W/m

0.00 mm

01:40

6.6 C

1015.6 hpa

63 %

14.5 km/h aus 116

25.7 km/h aus S

0.0 C

3.3 C

3.7 C

6.2 C

0 W/m

0.00 mm

01:45

6.6 C

1015.3 hpa

64 %

14.5 km/h aus 116

25.7 km/h aus SSW

0.2 C

3.3 C

3.7 C

6.2 C

0 W/m

0.00 mm

01:50

6.6 C

1015.3 hpa

64 %

16.1 km/h aus 118

24.1 km/h aus SSW

0.2 C

3.0 C

3.4 C

6.2 C

0 W/m

0.00 mm

01:55

6.6 C

1015.3 hpa

65 %

14.5 km/h aus 115

27.4 km/h aus SW

0.4 C

3.3 C

3.7 C

6.2 C

0 W/m

0.00 mm

02:00

6.5 C

1015.3 hpa

66 %

14.5 km/h aus 113

22.5 km/h aus SSW

0.6 C

3.2 C

3.6 C

6.1 C

0 W/m

0.00 mm

02:05

6.5 C

1015.3 hpa

66 %

9.7 km/h aus 117

19.3 km/h aus SW

0.6 C

4.1 C

4.5 C

6.1 C

0 W/m

0.00 mm

02:10

6.4 C

1015.3 hpa

67 %

17.7 km/h aus 117

30.6 km/h aus SSW

0.8 C

2.7 C

3.0 C

6.1 C

0 W/m

0.00 mm

02:15

6.4 C

1015.1 hpa

67 %

16.1 km/h aus 117

25.7 km/h aus SSW

0.8 C

2.9 C

3.2 C

6.1 C

0 W/m

0.00 mm

02:20

6.4 C

1015.1 hpa

68 %

14.5 km/h aus 115

25.7 km/h aus SSW

0.9 C

3.1 C

3.4 C

6.1 C

0 W/m

0.00 mm

02:25

6.3 C

1015.1 hpa

69 %

14.5 km/h aus 114

24.1 km/h aus S

1.1 C

3.1 C

3.4 C

6.0 C

0 W/m

0.00 mm

02:30

6.3 C

1015.0 hpa

70 %

11.3 km/h aus 116

22.5 km/h aus S

1.3 C

3.7 C

4.1 C

6.0 C

0 W/m

0.00 mm

02:35

6.3 C

1015.0 hpa

71 %

12.9 km/h aus 117

24.1 km/h aus S

1.4 C

3.4 C

3.7 C

6.0 C

0 W/m

0.00 mm

02:40

6.2 C

1015.0 hpa

72 %

16.1 km/h aus 116

27.4 km/h aus S

1.5 C

2.7 C

2.9 C

5.9 C

0 W/m

0.00 mm

02:45

6.1 C

1014.7 hpa

72 %

16.1 km/h aus 115

27.4 km/h aus S

1.4 C

2.6 C

2.8 C

5.8 C

0 W/m

0.00 mm

02:50

6.1 C

1014.7 hpa

73 %

11.3 km/h aus 116

24.1 km/h aus S

1.6 C

3.4 C

3.7 C

5.8 C

0 W/m

0.00 mm

02:55

6.0 C

1014.7 hpa

74 %

12.9 km/h aus 114

22.5 km/h aus SSW

1.7 C

3.1 C

3.3 C

5.8 C

0 W/m

0.00 mm

03:00

5.9 C

1014.6 hpa

74 %

12.9 km/h aus 116

22.5 km/h aus S

1.6 C

2.9 C

3.2 C

5.7 C

0 W/m

0.00 mm

03:05

5.8 C

1014.6 hpa

75 %

12.9 km/h aus 117

22.5 km/h aus SSW

1.7 C

2.9 C

3.1 C

5.6 C

0 W/m

0.00 mm

03:10

5.8 C

1014.6 hpa

76 %

9.7 km/h aus 117

17.7 km/h aus SSW

1.9 C

3.4 C

3.7 C

5.6 C

0 W/m

0.00 mm

03:15

5.7 C

1014.6 hpa

76 %

11.3 km/h aus 116

20.9 km/h aus S

1.8 C

3.0 C

3.2 C

5.4 C

0 W/m

0.00 mm

03:20

5.6 C

1014.6 hpa

77 %

12.9 km/h aus 115

27.4 km/h aus SSW

1.9 C

2.6 C

2.8 C

5.4 C

0 W/m

0.00 mm

03:25

5.6 C

1014.6 hpa

77 %

12.9 km/h aus 115

20.9 km/h aus S

1.8 C

2.6 C

2.8 C

5.3 C

0 W/m

0.00 mm

03:30

5.4 C

1014.4 hpa

78 %

16.1 km/h aus 115

22.5 km/h aus S

1.9 C

1.9 C

2.1 C

5.3 C

0 W/m

0.00 mm

03:35

5.4 C

1014.4 hpa

78 %

9.7 km/h aus 117

17.7 km/h aus S

1.9 C

3.1 C

3.3 C

5.3 C

0 W/m

0.00 mm

03:40

5.4 C

1014.4 hpa

78 %

12.9 km/h aus 117

20.9 km/h aus SSE

1.9 C

2.4 C

2.6 C

5.2 C

0 W/m

0.00 mm

03:45

5.3 C

1014.1 hpa

79 %

11.3 km/h aus 117

20.9 km/h aus S

2.0 C

2.6 C

2.8 C

5.2 C

0 W/m

0.00 mm

03:50

5.3 C

1014.1 hpa

79 %

12.9 km/h aus 117

20.9 km/h aus S

1.9 C

2.3 C

2.4 C

5.1 C

0 W/m

0.00 mm

03:55

5.2 C

1014.1 hpa

79 %

14.5 km/h aus 114

22.5 km/h aus S

1.9 C

1.9 C

2.1 C

5.1 C

0 W/m

0.00 mm

04:00

5.2 C

1014.1 hpa

80 %

12.9 km/h aus 117

19.3 km/h aus S

2.0 C

2.2 C

2.3 C

5.0 C

0 W/m

0.00 mm

04:05

5.2 C

1014.1 hpa

80 %

11.3 km/h aus 116

20.9 km/h aus S

2.0 C

2.4 C

2.6 C

5.0 C

0 W/m

0.00 mm

04:10

5.1 C

1014.1 hpa

80 %

8.0 km/h aus 117

11.3 km/h aus S

1.9 C

3.1 C

3.2 C

4.9 C

0 W/m

0.00 mm

04:15

5.1 C

1013.8 hpa

81 %

11.3 km/h aus 116

20.9 km/h aus S

2.1 C

2.3 C

2.4 C

4.9 C

0 W/m

0.00 mm

04:20

5.0 C

1013.8 hpa

81 %

12.9 km/h aus 117

17.7 km/h aus S

2.0 C

1.9 C

2.1 C

4.8 C

0 W/m

0.00 mm

04:25

5.0 C

1013.8 hpa

81 %

9.7 km/h aus 114

17.7 km/h aus S

2.0 C

2.6 C

2.7 C

4.8 C

0 W/m

0.00 mm

04:30

4.9 C

1013.5 hpa

82 %

6.4 km/h aus 114

14.5 km/h aus SSE

2.1 C

3.3 C

3.5 C

4.7 C

0 W/m

0.00 mm

04:35

4.8 C

1013.5 hpa

82 %

8.0 km/h aus 117

17.7 km/h aus SSE

2.0 C

2.8 C

2.9 C

4.7 C

0 W/m

0.00 mm

04:40

4.8 C

1013.5 hpa

82 %

4.8 km/h aus 115

9.7 km/h aus SSE

2.0 C

3.8 C

3.9 C

4.6 C

0 W/m

0.00 mm

04:45

4.7 C

1013.1 hpa

82 %

6.4 km/h aus 116

14.5 km/h aus SSE

1.9 C

3.1 C

3.2 C

4.5 C

0 W/m

0.00 mm

04:50

4.6 C

1013.1 hpa

83 %

12.9 km/h aus 116

17.7 km/h aus SSE

2.0 C

1.6 C

1.7 C

4.5 C

0 W/m

0.00 mm

04:55

4.6 C

1013.1 hpa

83 %

11.3 km/h aus 114

19.3 km/h aus SSE

1.9 C

1.7 C

1.8 C

4.4 C

0 W/m

0.00 mm

05:00

4.5 C

1013.2 hpa

83 %

8.0 km/h aus 114

11.3 km/h aus S

1.9 C

2.4 C

2.6 C

4.4 C

0 W/m

0.00 mm

05:05

4.5 C

1013.2 hpa

84 %

8.0 km/h aus 117

11.3 km/h aus S

2.0 C

2.4 C

2.6 C

4.4 C

0 W/m

0.00 mm

05:10

4.5 C

1013.2 hpa

84 %

9.7 km/h aus 116

16.1 km/h aus S

2.0 C

2.1 C

2.2 C

4.4 C

0 W/m

0.00 mm

05:15

4.5 C

1013.0 hpa

84 %

8.0 km/h aus 117

14.5 km/h aus S

2.0 C

2.4 C

2.6 C

4.4 C

0 W/m

0.00 mm

05:20

4.5 C

1013.0 hpa

84 %

8.0 km/h aus 117

12.9 km/h aus S

2.0 C

2.4 C

2.6 C

4.4 C

0 W/m

0.00 mm

05:25

4.5 C

1013.0 hpa

84 %

4.8 km/h aus 114

8.0 km/h aus S

2.0 C

3.5 C

3.6 C

4.4 C

0 W/m

0.00 mm

05:30

4.5 C

1012.6 hpa

84 %

6.4 km/h aus 113

11.3 km/h aus S

2.0 C

2.9 C

3.0 C

4.4 C

0 W/m

0.00 mm

05:35

4.4 C

1012.6 hpa

84 %

8.0 km/h aus 117

16.1 km/h aus SSE

2.0 C

2.4 C

2.5 C

4.3 C

0 W/m

0.00 mm

05:40

4.4 C

1012.6 hpa

84 %

8.0 km/h aus 117

11.3 km/h aus SSE

2.0 C

2.4 C

2.5 C

4.3 C

0 W/m

0.00 mm

05:45

4.4 C

1012.6 hpa

84 %

8.0 km/h aus 117

11.3 km/h aus SSE

2.0 C

2.4 C

2.5 C

4.3 C

0 W/m

0.00 mm

05:50

4.5 C

1012.6 hpa

84 %

6.4 km/h aus 117

11.3 km/h aus SSE

2.0 C

2.9 C

3.0 C

4.4 C

0 W/m

0.00 mm

05:55

4.6 C

1012.6 hpa

84 %

9.7 km/h aus 116

17.7 km/h aus S

2.1 C

2.1 C

2.2 C

4.4 C

0 W/m

0.00 mm

06:00

4.6 C

1012.5 hpa

84 %

11.3 km/h aus 113

17.7 km/h aus SSE

2.1 C

1.7 C

1.8 C

4.4 C

0 W/m

0.00 mm

06:05

4.6 C

1012.5 hpa

84 %

9.7 km/h aus 116

16.1 km/h aus SSE

2.1 C

2.2 C

2.3 C

4.5 C

0 W/m

0.00 mm

06:10

4.7 C

1012.5 hpa

84 %

12.9 km/h aus 117

22.5 km/h aus S

2.2 C

1.6 C

1.7 C

4.6 C

0 W/m

0.00 mm

06:15

4.7 C

1012.5 hpa

84 %

12.9 km/h aus 117

20.9 km/h aus SSE

2.2 C

1.7 C

1.8 C

4.6 C

0 W/m

0.00 mm

06:20

4.7 C

1012.5 hpa

84 %

11.3 km/h aus 117

19.3 km/h aus S

2.2 C

1.9 C

2.1 C

4.6 C

0 W/m

0.00 mm

06:25

4.8 C

1012.5 hpa

84 %

9.7 km/h aus 116

16.1 km/h aus SSE

2.3 C

2.4 C

2.5 C

4.7 C

0 W/m

0.00 mm

06:30

4.8 C

1012.5 hpa

83 %

9.7 km/h aus 114

16.1 km/h aus SSE

2.1 C

2.4 C

2.5 C

4.7 C

0 W/m

0.00 mm

06:35

4.8 C

1012.5 hpa

84 %

4.8 km/h aus 116

9.7 km/h aus SSE

2.3 C

3.8 C

3.9 C

4.7 C

0 W/m

0.00 mm

06:40

4.8 C

1012.5 hpa

83 %

4.8 km/h aus 117

9.7 km/h aus SSE

2.1 C

3.8 C

3.9 C

4.7 C

0 W/m

0.00 mm

06:45

4.8 C

1012.5 hpa

83 %

4.8 km/h aus 116

11.3 km/h aus SSE

2.1 C

3.8 C

3.9 C

4.7 C

0 W/m

0.00 mm

06:50

4.8 C

1012.5 hpa

83 %

4.8 km/h aus 117

9.7 km/h aus SSE

2.1 C

3.8 C

3.9 C

4.7 C

0 W/m

0.00 mm

06:55

4.8 C

1012.5 hpa

83 %

4.8 km/h aus 116

9.7 km/h aus SSE

2.1 C

3.8 C

3.9 C

4.7 C

0 W/m

0.00 mm

07:00

4.8 C

1012.1 hpa

83 %

4.8 km/h aus 114

9.7 km/h aus SSE

2.1 C

3.8 C

3.9 C

4.7 C

0 W/m

0.00 mm

07:05

4.8 C

1012.1 hpa

83 %

4.8 km/h aus 116

11.3 km/h aus SSE

2.1 C

3.8 C

3.9 C

4.7 C

0 W/m

0.00 mm

07:10

4.8 C

1012.1 hpa

83 %

8.0 km/h aus 117

14.5 km/h aus SSE

2.2 C

2.8 C

2.9 C

4.7 C

2 W/m

0.00 mm

07:15

4.8 C

1012.2 hpa

83 %

9.7 km/h aus 115

17.7 km/h aus S

2.2 C

2.4 C

2.6 C

4.7 C

6 W/m

0.00 mm

07:20

4.9 C

1012.2 hpa

83 %

8.0 km/h aus 117

17.7 km/h aus SSE

2.2 C

2.9 C

3.0 C

4.8 C

10 W/m

0.00 mm

07:25

4.9 C

1012.2 hpa

83 %

9.7 km/h aus 116

19.3 km/h aus SSE

2.2 C

2.5 C

2.6 C

4.8 C

13 W/m

0.00 mm

07:30

4.9 C

1012.1 hpa

83 %

9.7 km/h aus 114

17.7 km/h aus SE

2.2 C

2.5 C

2.6 C

4.8 C

15 W/m

0.00 mm

07:35

4.9 C

1012.1 hpa

83 %

8.0 km/h aus 115

17.7 km/h aus SE

2.3 C

2.9 C

3.1 C

4.8 C

20 W/m

0.00 mm

07:40

5.0 C

1012.1 hpa

83 %

9.7 km/h aus 117

17.7 km/h aus SSE

2.4 C

2.6 C

2.7 C

4.9 C

27 W/m

0.00 mm

07:45

5.0 C

1012.0 hpa

83 %

11.3 km/h aus 117

19.3 km/h aus SSE

2.4 C

2.3 C

2.4 C

4.9 C

34 W/m

0.00 mm

07:50

5.1 C

1012.0 hpa

83 %

9.7 km/h aus 116

16.1 km/h aus SSE

2.4 C

2.7 C

2.8 C

4.9 C

33 W/m

0.00 mm

07:55

5.2 C

1012.0 hpa

83 %

12.9 km/h aus 117

19.3 km/h aus SSE

2.5 C

2.2 C

2.3 C

5.1 C

37 W/m

0.00 mm

08:00

5.2 C

1012.0 hpa

83 %

14.5 km/h aus 113

20.9 km/h aus SSE

2.5 C

1.9 C

2.1 C

5.1 C

52 W/m

0.00 mm

08:05

5.2 C

1012.0 hpa

83 %

11.3 km/h aus 114

17.7 km/h aus S

2.6 C

2.6 C

2.7 C

5.1 C

97 W/m

0.00 mm

08:10

5.3 C

1012.0 hpa

83 %

11.3 km/h aus 117

17.7 km/h aus SSE

2.7 C

2.7 C

2.8 C

5.2 C

129 W/m

0.00 mm

08:15

5.5 C

1011.9 hpa

83 %

11.3 km/h aus 117

19.3 km/h aus S

2.8 C

2.9 C

3.0 C

5.4 C

127 W/m

0.00 mm

08:20

5.7 C

1011.9 hpa

83 %

12.9 km/h aus 117

19.3 km/h aus SSE

3.0 C

2.8 C

2.9 C

5.6 C

146 W/m

0.00 mm

08:25

5.8 C

1011.9 hpa

82 %

11.3 km/h aus 117

17.7 km/h aus S

2.9 C

3.2 C

3.3 C

5.7 C

113 W/m

0.00 mm

08:30

5.8 C

1011.9 hpa

82 %

11.3 km/h aus 114

17.7 km/h aus SSE

3.0 C

3.3 C

3.4 C

5.7 C

54 W/m

0.00 mm

08:35

5.9 C

1011.9 hpa

82 %

12.9 km/h aus 116

17.7 km/h aus SSE

3.0 C

3.1 C

3.2 C

5.8 C

44 W/m

0.00 mm

08:40

5.9 C

1011.9 hpa

81 %

12.9 km/h aus 117

20.9 km/h aus S

2.9 C

3.0 C

3.2 C

5.7 C

45 W/m

0.00 mm

08:45

5.9 C

1011.9 hpa

81 %

11.3 km/h aus 117

17.7 km/h aus SSE

2.9 C

3.3 C

3.5 C

5.7 C

53 W/m

0.00 mm

08:50

5.9 C

1011.9 hpa

81 %

8.0 km/h aus 116

12.9 km/h aus SSE

2.9 C

4.0 C

4.2 C

5.7 C

61 W/m

0.00 mm

08:55

5.9 C

1011.9 hpa

81 %

9.7 km/h aus 116

16.1 km/h aus SSE

2.9 C

3.7 C

3.8 C

5.8 C

60 W/m

0.00 mm

09:00

6.0 C

1011.9 hpa

81 %

8.0 km/h aus 114

16.1 km/h aus SSE

3.0 C

4.2 C

4.3 C

5.8 C

79 W/m

0.00 mm

09:05

6.1 C

1011.9 hpa

81 %

8.0 km/h aus 117

17.7 km/h aus SSE

3.0 C

4.2 C

4.4 C

5.9 C

74 W/m

0.00 mm

09:10

6.1 C

1011.9 hpa

81 %

6.4 km/h aus 115

11.3 km/h aus S

3.1 C

4.7 C

4.9 C

5.9 C

80 W/m

0.00 mm

09:15

6.2 C

1012.0 hpa

81 %

6.4 km/h aus 117

11.3 km/h aus S

3.1 C

4.8 C

4.9 C

6.0 C

84 W/m

0.00 mm

09:20

6.2 C

1012.0 hpa

81 %

8.0 km/h aus 117

16.1 km/h aus S

3.2 C

4.4 C

4.6 C

6.1 C

75 W/m

0.00 mm

09:25

6.3 C

1012.0 hpa

81 %

8.0 km/h aus 116

14.5 km/h aus S

3.3 C

4.6 C

4.7 C

6.2 C

71 W/m

0.00 mm

09:30

6.3 C

1012.1 hpa

80 %

9.7 km/h aus 114

14.5 km/h aus S

3.1 C

4.2 C

4.3 C

6.2 C

67 W/m

0.00 mm

09:35

6.3 C

1012.1 hpa

81 %

8.0 km/h aus 117

14.5 km/h aus S

3.3 C

4.6 C

4.7 C

6.2 C

62 W/m

0.00 mm

09:40

6.4 C

1012.1 hpa

80 %

11.3 km/h aus 117

20.9 km/h aus S

3.2 C

4.0 C

4.1 C

6.3 C

71 W/m

0.00 mm

09:45

6.5 C

1012.0 hpa

80 %

12.9 km/h aus 116

24.1 km/h aus S

3.3 C

3.8 C

3.9 C

6.4 C

88 W/m

0.00 mm

09:50

6.6 C

1012.0 hpa

80 %

12.9 km/h aus 117

20.9 km/h aus SSW

3.4 C

3.9 C

4.0 C

6.4 C

86 W/m

0.00 mm

09:55

6.7 C

1012.0 hpa

80 %

14.5 km/h aus 115

24.1 km/h aus SSE

3.5 C

3.7 C

3.8 C

6.6 C

95 W/m

0.00 mm

10:00

6.8 C

1012.0 hpa

80 %

17.7 km/h aus 115

25.7 km/h aus S

3.6 C

3.2 C

3.3 C

6.7 C

111 W/m

0.00 mm

10:05

6.9 C

1012.0 hpa

80 %

16.1 km/h aus 116

25.7 km/h aus SSW

3.7 C

3.7 C

3.8 C

6.8 C

129 W/m

0.00 mm

10:10

6.9 C

1012.0 hpa

80 %

12.9 km/h aus 117

25.7 km/h aus S

3.7 C

4.3 C

4.4 C

6.8 C

117 W/m

0.00 mm

10:15

7.0 C

1012.1 hpa

80 %

17.7 km/h aus 117

25.7 km/h aus S

3.8 C

3.5 C

3.6 C

6.9 C

106 W/m

0.00 mm

10:20

7.1 C

1012.1 hpa

80 %

16.1 km/h aus 115

25.7 km/h aus S

3.8 C

3.8 C

3.9 C

6.9 C

103 W/m

0.00 mm

10:25

7.1 C

1012.1 hpa

81 %

14.5 km/h aus 114

20.9 km/h aus S

4.1 C

4.2 C

4.3 C

7.0 C

105 W/m

0.00 mm

10:30

7.2 C

1012.1 hpa

81 %

14.5 km/h aus 115

20.9 km/h aus S

4.1 C

4.3 C

4.4 C

7.1 C

102 W/m

0.00 mm

10:35

7.2 C

1012.1 hpa

81 %

16.1 km/h aus 116

24.1 km/h aus S

4.1 C

4.0 C

4.1 C

7.1 C

105 W/m

0.00 mm

10:40

7.2 C

1012.1 hpa

81 %

11.3 km/h aus 116

25.7 km/h aus SSW

4.1 C

4.9 C

5.1 C

7.1 C

81 W/m

0.00 mm

10:45

7.2 C

1012.3 hpa

82 %

11.3 km/h aus 117

20.9 km/h aus S

4.3 C

4.9 C

5.1 C

7.1 C

89 W/m

0.00 mm

10:50

7.1 C

1012.3 hpa

82 %

11.3 km/h aus 115

24.1 km/h aus SSW

4.2 C

4.8 C

4.9 C

6.9 C

90 W/m

0.00 mm

10:55

7.1 C

1012.3 hpa

82 %

6.4 km/h aus 115

17.7 km/h aus S

4.2 C

5.9 C

6.1 C

7.0 C

118 W/m

0.00 mm

11:00

7.1 C

1012.2 hpa

83 %

6.4 km/h aus 116

17.7 km/h aus SW

4.4 C

6.0 C

6.1 C

7.1 C

117 W/m

0.00 mm

11:05

7.2 C

1012.2 hpa

84 %

12.9 km/h aus 117

22.5 km/h aus S

4.6 C

4.7 C

4.7 C

7.1 C

161 W/m

0.00 mm

11:10

7.2 C

1012.2 hpa

85 %

9.7 km/h aus 117

17.7 km/h aus S

4.9 C

5.3 C

5.4 C

7.2 C

182 W/m

0.00 mm

11:15

7.2 C

1012.1 hpa

85 %

11.3 km/h aus 117

20.9 km/h aus S

4.9 C

5.1 C

5.1 C

7.2 C

194 W/m

0.00 mm

11:20

7.3 C

1012.1 hpa

86 %

11.3 km/h aus 113

19.3 km/h aus S

5.1 C

5.1 C

5.2 C

7.2 C

184 W/m

0.00 mm

11:25

7.3 C

1012.1 hpa

86 %

6.4 km/h aus 116

11.3 km/h aus S

5.1 C

6.2 C

6.2 C

7.2 C

154 W/m

0.00 mm

11:30

7.2 C

1012.0 hpa

86 %

8.0 km/h aus 117

17.7 km/h aus S

5.0 C

5.7 C

5.7 C

7.2 C

144 W/m

0.00 mm

11:35

7.3 C

1012.0 hpa

86 %

8.0 km/h aus 116

14.5 km/h aus S

5.1 C

5.7 C

5.8 C

7.2 C

112 W/m

0.00 mm

11:40

7.3 C

1012.0 hpa

86 %

8.0 km/h aus 117

14.5 km/h aus SSE

5.1 C

5.7 C

5.8 C

7.2 C

110 W/m

0.00 mm

11:45

7.3 C

1011.9 hpa

86 %

9.7 km/h aus 115

14.5 km/h aus S

5.1 C

5.5 C

5.5 C

7.3 C

135 W/m

0.00 mm

11:50

7.4 C

1011.9 hpa

86 %

9.7 km/h aus 113

17.7 km/h aus SSE

5.3 C

5.7 C

5.7 C

7.4 C

135 W/m

0.00 mm

11:55

7.6 C

1011.9 hpa

86 %

12.9 km/h aus 117

17.7 km/h aus S

5.4 C

5.2 C

5.2 C

7.6 C

131 W/m

0.00 mm

12:00

7.7 C

1011.8 hpa

85 %

11.3 km/h aus 117

17.7 km/h aus S

5.4 C

5.7 C

5.7 C

7.7 C

126 W/m

0.00 mm

12:05

7.8 C

1011.8 hpa

85 %

9.7 km/h aus 117

16.1 km/h aus S

5.5 C

6.1 C

6.1 C

7.8 C

119 W/m

0.00 mm

12:10

7.9 C

1011.8 hpa

85 %

9.7 km/h aus 115

16.1 km/h aus S

5.5 C

6.2 C

6.2 C

7.9 C

112 W/m

0.00 mm

12:15

7.9 C

1011.8 hpa

84 %

16.1 km/h aus 115

22.5 km/h aus S

5.4 C

5.0 C

5.0 C

7.9 C

126 W/m

0.00 mm

12:20

8.1 C

1011.8 hpa

84 %

12.9 km/h aus 115

19.3 km/h aus SSW

5.5 C

5.7 C

5.7 C

8.1 C

117 W/m

0.00 mm

12:25

8.1 C

1011.8 hpa

83 %

11.3 km/h aus 116

20.9 km/h aus S

5.4 C

6.1 C

6.2 C

8.1 C

121 W/m

0.00 mm

12:30

8.2 C

1011.9 hpa

83 %

11.3 km/h aus 116

19.3 km/h aus S

5.5 C

6.3 C

6.3 C

8.2 C

138 W/m

0.00 mm

12:35

8.4 C

1011.9 hpa

82 %

11.3 km/h aus 118

17.7 km/h aus S

5.5 C

6.5 C

6.6 C

8.4 C

153 W/m

0.00 mm

12:40

8.5 C

1011.9 hpa

81 %

9.7 km/h aus 114

17.7 km/h aus SSW

5.4 C

6.9 C

6.9 C

8.4 C

186 W/m

0.00 mm

12:45

8.7 C

1011.6 hpa

81 %

16.1 km/h aus 113

24.1 km/h aus S

5.6 C

5.8 C

5.8 C

8.6 C

192 W/m

0.00 mm

12:50

8.8 C

1011.6 hpa

80 %

12.9 km/h aus 117

22.5 km/h aus S

5.6 C

6.6 C

6.7 C

8.8 C

202 W/m

0.00 mm

12:55

8.9 C

1011.6 hpa

80 %

12.9 km/h aus 117

19.3 km/h aus SSW

5.6 C

6.7 C

6.7 C

8.8 C

164 W/m

0.00 mm

13:00

9.0 C

1011.4 hpa

80 %

14.5 km/h aus 117

19.3 km/h aus SSE

5.7 C

6.4 C

6.5 C

8.9 C

161 W/m

0.00 mm

13:05

9.2 C

1011.4 hpa

80 %

9.7 km/h aus 115

24.1 km/h aus SSW

5.9 C

7.7 C

7.7 C

9.1 C

183 W/m

0.00 mm

13:10

9.2 C

1011.4 hpa

79 %

14.5 km/h aus 113

20.9 km/h aus S

5.8 C

6.7 C

6.8 C

9.2 C

198 W/m

0.00 mm

13:15

9.5 C

1011.4 hpa

79 %

8.0 km/h aus 117

17.7 km/h aus SSW

6.0 C

8.3 C

8.4 C

9.4 C

283 W/m

0.00 mm

13:20

9.8 C

1011.4 hpa

79 %

14.5 km/h aus 117

27.4 km/h aus S

6.3 C

7.4 C

7.4 C

9.7 C

253 W/m

0.00 mm

13:25

9.6 C

1011.4 hpa

79 %

12.9 km/h aus 117

24.1 km/h aus SSW

6.1 C

7.6 C

7.6 C

9.6 C

177 W/m

0.00 mm

13:30

9.8 C

1011.4 hpa

79 %

11.3 km/h aus 117

19.3 km/h aus SSW

6.4 C

8.2 C

8.2 C

9.8 C

366 W/m

0.00 mm

13:35

9.9 C

1011.4 hpa

79 %

12.9 km/h aus 113

20.9 km/h aus S

6.5 C

8.0 C

8.0 C

9.9 C

187 W/m

0.00 mm

13:40

9.8 C

1011.4 hpa

79 %

19.3 km/h aus 117

25.7 km/h aus SSW

6.3 C

6.6 C

6.6 C

9.7 C

211 W/m

0.00 mm

13:45

9.8 C

1011.4 hpa

81 %

19.3 km/h aus 116

27.4 km/h aus S

6.7 C

6.6 C

6.6 C

9.8 C

194 W/m

0.00 mm

13:50

9.7 C

1011.4 hpa

82 %

14.5 km/h aus 116

22.5 km/h aus S

6.7 C

7.3 C

7.3 C

9.7 C

167 W/m

0.00 mm

13:55

9.7 C

1011.4 hpa

82 %

12.9 km/h aus 117

25.7 km/h aus S

6.7 C

7.7 C

7.7 C

9.7 C

167 W/m

0.00 mm

14:00

9.5 C

1011.4 hpa

84 %

19.3 km/h aus 114

27.4 km/h aus S

6.9 C

6.3 C

6.3 C

9.6 C

217 W/m

0.00 mm

14:05

9.3 C

1011.4 hpa

84 %

20.9 km/h aus 115

27.4 km/h aus S

6.8 C

5.8 C

5.8 C

9.3 C

202 W/m

0.00 mm

14:10

9.2 C

1011.4 hpa

85 %

16.1 km/h aus 117

25.7 km/h aus S

6.8 C

6.6 C

6.5 C

9.3 C

176 W/m

0.00 mm

14:15

9.1 C

1011.4 hpa

85 %

6.4 km/h aus 117

14.5 km/h aus S

6.7 C

8.3 C

8.3 C

9.1 C

191 W/m

0.00 mm

14:20

9.1 C

1011.4 hpa

86 %

9.7 km/h aus 116

17.7 km/h aus SSW

6.9 C

7.7 C

7.7 C

9.2 C

219 W/m

0.00 mm

14:25

9.2 C

1011.4 hpa

87 %

12.9 km/h aus 114

20.9 km/h aus SSW

7.2 C

7.2 C

7.1 C

9.3 C

249 W/m

0.00 mm

14:30

9.2 C

1011.3 hpa

88 %

11.3 km/h aus 115

20.9 km/h aus S

7.3 C

7.6 C

7.5 C

9.3 C

253 W/m

0.00 mm

14:35

9.3 C

1011.3 hpa

88 %

14.5 km/h aus 116

22.5 km/h aus S

7.4 C

7.1 C

6.9 C

9.4 C

241 W/m

0.00 mm

14:40

9.4 C

1011.3 hpa

88 %

8.0 km/h aus 116

14.5 km/h aus S

7.5 C

8.4 C

8.3 C

9.5 C

206 W/m

0.00 mm

14:45

9.4 C

1011.2 hpa

88 %

9.7 km/h aus 118

14.5 km/h aus S

7.5 C

8.1 C

8.0 C

9.5 C

138 W/m

0.00 mm

14:50

9.4 C

1011.2 hpa

88 %

9.7 km/h aus 115

17.7 km/h aus S

7.5 C

8.1 C

8.0 C

9.5 C

166 W/m

0.00 mm

14:55

9.4 C

1011.2 hpa

88 %

11.3 km/h aus 113

17.7 km/h aus S

7.6 C

7.9 C

7.8 C

9.6 C

119 W/m

0.00 mm

15:00

9.5 C

1011.0 hpa

88 %

9.7 km/h aus 117

17.7 km/h aus SSW

7.6 C

8.2 C

8.1 C

9.6 C

125 W/m

0.00 mm

15:05

9.5 C

1011.0 hpa

87 %

12.9 km/h aus 117

22.5 km/h aus S

7.4 C

7.6 C

7.4 C

9.6 C

113 W/m

0.00 mm

15:10

9.6 C

1011.0 hpa

87 %

12.9 km/h aus 117

19.3 km/h aus SSW

7.5 C

7.6 C

7.5 C

9.7 C

119 W/m

0.00 mm

15:15

9.6 C

1010.9 hpa

86 %

11.3 km/h aus 116

19.3 km/h aus S

7.3 C

7.9 C

7.9 C

9.6 C

90 W/m

0.00 mm

15:20

9.6 C

1010.9 hpa

86 %

19.3 km/h aus 114

27.4 km/h aus S

7.4 C

6.4 C

6.4 C

9.7 C

87 W/m

0.00 mm

15:25

9.7 C

1010.9 hpa

86 %

14.5 km/h aus 117

20.9 km/h aus S

7.4 C

7.4 C

7.3 C

9.7 C

138 W/m

0.00 mm

15:30

9.7 C

1010.8 hpa

86 %

8.0 km/h aus 116

16.1 km/h aus S

7.5 C

8.7 C

8.7 C

9.8 C

157 W/m

0.00 mm

15:35

9.7 C

1010.8 hpa

86 %

9.7 km/h aus 117

17.7 km/h aus SSW

7.5 C

8.4 C

8.4 C

9.8 C

135 W/m

0.00 mm

15:40

9.7 C

1010.8 hpa

87 %

9.7 km/h aus 117

17.7 km/h aus SSW

7.7 C

8.5 C

8.4 C

9.8 C

126 W/m

0.00 mm

15:45

9.7 C

1010.8 hpa

87 %

11.3 km/h aus 114

22.5 km/h aus S

7.7 C

8.2 C

8.1 C

9.8 C

121 W/m

0.00 mm

15:50

9.8 C

1010.8 hpa

87 %

9.7 km/h aus 117

22.5 km/h aus SSW

7.7 C

8.6 C

8.4 C

9.9 C

93 W/m

0.00 mm

15:55

9.7 C

1010.8 hpa

87 %

9.7 km/h aus 117

17.7 km/h aus SSW

7.7 C

8.5 C

8.4 C

9.8 C

68 W/m

0.00 mm

16:00

9.7 C

1010.7 hpa

86 %

6.4 km/h aus 117

17.7 km/h aus SW

7.5 C

9.1 C

9.1 C

9.8 C

74 W/m

0.00 mm

16:05

9.7 C

1010.7 hpa

87 %

3.2 km/h aus 117

8.0 km/h aus SSW

7.7 C

9.8 C

9.7 C

9.8 C

91 W/m

0.00 mm

16:10

9.8 C

1010.7 hpa

87 %

11.3 km/h aus 114

22.5 km/h aus SSW

7.7 C

8.3 C

8.2 C

9.9 C

96 W/m

0.00 mm

16:15

9.8 C

1010.4 hpa

87 %

12.9 km/h aus 115

22.5 km/h aus S

7.8 C

7.9 C

7.8 C

9.9 C

107 W/m

0.00 mm

16:20

9.8 C

1010.4 hpa

87 %

9.7 km/h aus 117

19.3 km/h aus S

7.8 C

8.6 C

8.5 C

9.9 C

101 W/m

0.00 mm

16:25

9.9 C

1010.4 hpa

87 %

8.0 km/h aus 117

16.1 km/h aus SSW

7.8 C

9.0 C

8.9 C

10.0 C

100 W/m

0.00 mm

16:30

9.9 C

1010.4 hpa

87 %

9.7 km/h aus 116

19.3 km/h aus SSW

7.9 C

8.8 C

8.7 C

10.1 C

89 W/m

0.00 mm

16:35

10.0 C

1010.4 hpa

87 %

6.4 km/h aus 115

16.1 km/h aus SSW

7.9 C

9.5 C

9.4 C

10.1 C

95 W/m

0.00 mm

16:40

10.0 C

1010.4 hpa

87 %

8.0 km/h aus 115

16.1 km/h aus SSW

7.9 C

9.1 C

9.0 C

10.1 C

113 W/m

0.00 mm

16:45

10.1 C

1010.3 hpa

87 %

8.0 km/h aus 117

12.9 km/h aus SSW

8.0 C

9.2 C

9.1 C

10.2 C

121 W/m

0.00 mm

16:50

10.2 C

1010.3 hpa

87 %

8.0 km/h aus 117

12.9 km/h aus SSW

8.1 C

9.3 C

9.2 C

10.2 C

109 W/m

0.00 mm

16:55

10.3 C

1010.3 hpa

87 %

12.9 km/h aus 117

17.7 km/h aus S

8.2 C

8.4 C

8.4 C

10.3 C

137 W/m

0.00 mm

17:00

10.3 C

1010.1 hpa

87 %

8.0 km/h aus 115

16.1 km/h aus SSW

8.2 C

9.4 C

9.3 C

10.3 C

157 W/m

0.00 mm

17:05

10.3 C

1010.1 hpa

87 %

9.7 km/h aus 114

19.3 km/h aus S

8.3 C

9.2 C

9.1 C

10.4 C

137 W/m

0.00 mm

17:10

10.3 C

1010.1 hpa

86 %

9.7 km/h aus 117

20.9 km/h aus S

8.1 C

9.2 C

9.1 C

10.4 C

118 W/m

0.00 mm

17:15

10.4 C

1009.9 hpa

86 %

11.3 km/h aus 117

20.9 km/h aus S

8.1 C

8.9 C

8.9 C

10.4 C

118 W/m

0.00 mm

17:20

10.4 C

1009.9 hpa

87 %

8.0 km/h aus 117

16.1 km/h aus SSW

8.4 C

9.6 C

9.6 C

10.5 C

123 W/m

0.00 mm

17:25

10.4 C

1009.9 hpa

87 %

9.7 km/h aus 115

19.3 km/h aus S

8.3 C

9.2 C

9.2 C

10.4 C

101 W/m

0.00 mm

17:30

10.4 C

1009.8 hpa

87 %

11.3 km/h aus 115

17.7 km/h aus S

8.3 C

8.9 C

8.9 C

10.4 C

81 W/m

0.00 mm

17:35

10.3 C

1009.8 hpa

87 %

8.0 km/h aus 117

12.9 km/h aus SSW

8.3 C

9.4 C

9.4 C

10.4 C

90 W/m

0.00 mm

17:40

10.3 C

1009.8 hpa

87 %

8.0 km/h aus 117

11.3 km/h aus SSW

8.3 C

9.4 C

9.4 C

10.4 C

81 W/m

0.00 mm

17:45

10.4 C

1009.7 hpa

87 %

8.0 km/h aus 117

11.3 km/h aus SSW

8.3 C

9.5 C

9.4 C

10.4 C

57 W/m

0.00 mm

17:50

10.4 C

1009.7 hpa

87 %

4.8 km/h aus 117

11.3 km/h aus SSW

8.3 C

10.3 C

10.3 C

10.4 C

52 W/m

0.00 mm

17:55

10.4 C

1009.7 hpa

87 %

8.0 km/h aus 115

14.5 km/h aus SSW

8.3 C

9.5 C

9.4 C

10.4 C

41 W/m

0.00 mm

18:00

10.4 C

1009.3 hpa

87 %

6.4 km/h aus 116

9.7 km/h aus SSW

8.3 C

9.9 C

9.8 C

10.4 C

34 W/m

0.00 mm

18:05

10.4 C

1009.3 hpa

87 %

4.8 km/h aus 117

8.0 km/h aus SSW

8.3 C

10.3 C

10.3 C

10.4 C

46 W/m

0.00 mm

18:10

10.4 C

1009.3 hpa

87 %

3.2 km/h aus 116

6.4 km/h aus SSW

8.3 C

10.4 C

10.4 C

10.4 C

53 W/m

0.00 mm

18:15

10.4 C

1009.3 hpa

88 %

1.6 km/h aus 117

4.8 km/h aus SSW

8.5 C

10.5 C

10.4 C

10.5 C

45 W/m

0.00 mm

18:20

10.4 C

1009.3 hpa

88 %

1.6 km/h aus 113

8.0 km/h aus SSW

8.5 C

10.5 C

10.4 C

10.5 C

34 W/m

0.00 mm

18:25

10.4 C

1009.3 hpa

88 %

4.8 km/h aus 116

6.4 km/h aus SSW

8.5 C

10.4 C

10.3 C

10.5 C

33 W/m

0.00 mm

18:30

10.4 C

1009.3 hpa

88 %

3.2 km/h aus 117

6.4 km/h aus SSW

8.5 C

10.5 C

10.4 C

10.5 C

30 W/m

0.00 mm

18:35

10.4 C

1009.3 hpa

88 %

0.0 km/h aus 117

3.2 km/h aus SSW

8.5 C

10.5 C

10.4 C

10.5 C

26 W/m

0.00 mm

18:40

10.3 C

1009.3 hpa

88 %

0.0 km/h aus 116

0.0 km/h aus ---

8.4 C

10.4 C

10.3 C

10.4 C

31 W/m

0.00 mm

18:45

10.4 C

1009.1 hpa

88 %

0.0 km/h aus 115

0.0 km/h aus ---

8.5 C

10.5 C

10.4 C

10.5 C

32 W/m

0.00 mm

18:50

10.3 C

1009.1 hpa

88 %

0.0 km/h aus 115

1.6 km/h aus SSW

8.4 C

10.4 C

10.3 C

10.4 C

33 W/m

0.00 mm

18:55

10.4 C

1009.1 hpa

88 %

0.0 km/h aus 116

3.2 km/h aus SSW

8.5 C

10.5 C

10.4 C

10.5 C

37 W/m

0.00 mm

19:00

10.3 C

1008.8 hpa

88 %

0.0 km/h aus 118

4.8 km/h aus SSW

8.4 C

10.4 C

10.3 C

10.4 C

37 W/m

0.00 mm

19:05

10.3 C

1008.8 hpa

88 %

1.6 km/h aus 117

8.0 km/h aus S

8.4 C

10.4 C

10.3 C

10.4 C

32 W/m

0.00 mm

19:10

10.3 C

1008.8 hpa

88 %

1.6 km/h aus 115

6.4 km/h aus S

8.4 C

10.4 C

10.3 C

10.4 C

27 W/m

0.00 mm

19:15

10.3 C

1008.7 hpa

88 %

1.6 km/h aus 115

6.4 km/h aus S

8.4 C

10.4 C

10.3 C

10.4 C

23 W/m

0.00 mm

19:20

10.3 C

1008.7 hpa

88 %

0.0 km/h aus 117

4.8 km/h aus S

8.4 C

10.4 C

10.3 C

10.4 C

19 W/m

0.00 mm

19:25

10.3 C

1008.7 hpa

88 %

0.0 km/h aus 116

6.4 km/h aus S

8.4 C

10.4 C

10.3 C

10.4 C

18 W/m

0.00 mm

19:30

10.2 C

1008.6 hpa

87 %

0.0 km/h aus 116

3.2 km/h aus S

8.2 C

10.3 C

10.2 C

10.3 C

13 W/m

0.00 mm

19:35

10.2 C

1008.6 hpa

87 %

0.0 km/h aus 115

3.2 km/h aus S

8.1 C

10.2 C

10.2 C

10.2 C

8 W/m

0.00 mm

19:40

10.2 C

1008.6 hpa

87 %

1.6 km/h aus 114

4.8 km/h aus S

8.1 C

10.2 C

10.2 C

10.2 C

3 W/m

0.00 mm

19:45

10.1 C

1008.4 hpa

88 %

0.0 km/h aus 116

3.2 km/h aus S

8.2 C

10.2 C

10.1 C

10.2 C

0 W/m

0.00 mm

19:50

10.1 C

1008.4 hpa

88 %

1.6 km/h aus 117

8.0 km/h aus S

8.2 C

10.2 C

10.1 C

10.2 C

0 W/m

0.00 mm

19:55

10.1 C

1008.4 hpa

88 %

0.0 km/h aus 117

4.8 km/h aus S

8.2 C

10.2 C

10.1 C

10.2 C

0 W/m

0.00 mm

20:00

10.1 C

1008.4 hpa

88 %

1.6 km/h aus 117

4.8 km/h aus S

8.2 C

10.2 C

10.1 C

10.2 C

0 W/m

0.00 mm

20:05

10.0 C

1008.4 hpa

88 %

0.0 km/h aus 115

3.2 km/h aus S

8.1 C

10.1 C

10.0 C

10.1 C

0 W/m

0.00 mm

20:10

9.9 C

1008.4 hpa

87 %

1.6 km/h aus 116

4.8 km/h aus S

7.9 C

10.1 C

9.9 C

10.1 C

0 W/m

0.00 mm

20:15

9.9 C

1008.4 hpa

87 %

0.0 km/h aus 117

3.2 km/h aus S

7.9 C

10.1 C

9.9 C

10.1 C

0 W/m

0.00 mm

20:20

9.9 C

1008.4 hpa

87 %

0.0 km/h aus 117

8.0 km/h aus S

7.8 C

10.0 C

9.9 C

10.0 C

0 W/m

0.00 mm

20:25

9.9 C

1008.4 hpa

88 %

4.8 km/h aus 116

8.0 km/h aus S

8.0 C

9.8 C

9.7 C

10.0 C

0 W/m

0.00 mm

20:30

9.9 C

1008.3 hpa

88 %

3.2 km/h aus 114

9.7 km/h aus SSE

8.0 C

10.0 C

9.9 C

10.0 C

0 W/m

0.00 mm

20:35

9.9 C

1008.3 hpa

88 %

3.2 km/h aus 115

9.7 km/h aus SE

8.0 C

10.0 C

9.9 C

10.0 C

0 W/m

0.00 mm

20:40

9.9 C

1008.3 hpa

88 %

1.6 km/h aus 116

4.8 km/h aus SE

8.0 C

10.1 C

9.9 C

10.1 C

0 W/m

0.00 mm

20:45

9.9 C

1008.2 hpa

88 %

0.0 km/h aus 116

6.4 km/h aus SE

8.0 C

10.1 C

9.9 C

10.1 C

0 W/m

0.00 mm

20:50

9.9 C

1008.2 hpa

88 %

1.6 km/h aus 117

6.4 km/h aus SE

8.0 C

10.1 C

9.9 C

10.1 C

0 W/m

0.00 mm

20:55

10.0 C

1008.2 hpa

88 %

0.0 km/h aus 115

0.0 km/h aus ---

8.1 C

10.1 C

10.0 C

10.1 C

0 W/m

0.00 mm

21:00

10.0 C

1008.2 hpa

88 %

0.0 km/h aus 115

3.2 km/h aus SE

8.1 C

10.1 C

10.0 C

10.1 C

0 W/m

0.00 mm

21:05

10.0 C

1008.2 hpa

88 %

0.0 km/h aus 116

1.6 km/h aus SE

8.1 C

10.1 C

10.0 C

10.1 C

0 W/m

0.00 mm

21:10

10.0 C

1008.2 hpa

88 %

1.6 km/h aus 118

4.8 km/h aus SE

8.1 C

10.1 C

10.0 C

10.1 C

0 W/m

0.00 mm

21:15

10.1 C

1008.1 hpa

88 %

1.6 km/h aus 117

9.7 km/h aus SE

8.2 C

10.2 C

10.1 C

10.2 C

0 W/m

0.25 mm

21:20

10.1 C

1008.1 hpa

88 %

1.6 km/h aus 116

6.4 km/h aus SE

8.2 C

10.2 C

10.1 C

10.2 C

0 W/m

0.00 mm

21:25

10.1 C

1008.1 hpa

88 %

1.6 km/h aus 113

4.8 km/h aus SE

8.2 C

10.2 C

10.1 C

10.2 C

0 W/m

0.00 mm

21:30

10.1 C

1007.9 hpa

88 %

0.0 km/h aus 116

4.8 km/h aus SE

8.2 C

10.2 C

10.1 C

10.2 C

0 W/m

0.00 mm

21:35

10.1 C

1007.9 hpa

88 %

1.6 km/h aus 117

4.8 km/h aus SE

8.2 C

10.2 C

10.1 C

10.2 C

0 W/m

0.00 mm

21:40

10.0 C

1007.9 hpa

88 %

4.8 km/h aus 116

9.7 km/h aus SE

8.1 C

9.9 C

9.8 C

10.1 C

0 W/m

0.00 mm

21:45

10.0 C

1007.4 hpa

88 %

6.4 km/h aus 116

12.9 km/h aus ESE

8.1 C

9.5 C

9.4 C

10.1 C

0 W/m

0.00 mm

21:50

10.0 C

1007.4 hpa

88 %

4.8 km/h aus 115

11.3 km/h aus ESE

8.1 C

9.9 C

9.8 C

10.1 C

0 W/m

0.00 mm

21:55

10.1 C

1007.4 hpa

88 %

0.0 km/h aus 115

6.4 km/h aus ESE

8.2 C

10.2 C

10.1 C

10.2 C

0 W/m

0.00 mm

22:00

10.1 C

1007.3 hpa

88 %

0.0 km/h aus 116

8.0 km/h aus ENE

8.2 C

10.2 C

10.1 C

10.2 C

0 W/m

0.00 mm

22:05

10.1 C

1007.3 hpa

88 %

1.6 km/h aus 116

8.0 km/h aus E

8.2 C

10.2 C

10.1 C

10.2 C

0 W/m

0.00 mm

22:10

10.1 C

1007.3 hpa

88 %

3.2 km/h aus 117

6.4 km/h aus E

8.2 C

10.2 C

10.1 C

10.2 C

0 W/m

0.00 mm

22:15

10.1 C

1007.0 hpa

88 %

3.2 km/h aus 117

6.4 km/h aus E

8.2 C

10.2 C

10.1 C

10.2 C

0 W/m

0.00 mm

22:20

10.1 C

1007.0 hpa

88 %

1.6 km/h aus 114

4.8 km/h aus E

8.2 C

10.2 C

10.1 C

10.2 C

0 W/m

0.00 mm

22:25

10.0 C

1007.0 hpa

88 %

0.0 km/h aus 116

6.4 km/h aus E

8.1 C

10.1 C

10.0 C

10.1 C

0 W/m

0.00 mm

22:30

10.0 C

1006.8 hpa

89 %

1.6 km/h aus 117

8.0 km/h aus E

8.3 C

10.2 C

10.0 C

10.2 C

0 W/m

0.00 mm

22:35

10.0 C

1006.8 hpa

89 %

3.2 km/h aus 117

8.0 km/h aus E

8.3 C

10.2 C

10.0 C

10.2 C

0 W/m

0.00 mm

22:40

10.1 C

1006.8 hpa

89 %

4.8 km/h aus 116

9.7 km/h aus ESE

8.3 C

10.0 C

9.9 C

10.2 C

0 W/m

0.00 mm

22:45

10.1 C

1006.7 hpa

89 %

4.8 km/h aus 112

11.3 km/h aus SE

8.4 C

10.1 C

9.9 C

10.2 C

0 W/m

0.00 mm

22:50

10.2 C

1006.7 hpa

89 %

3.2 km/h aus 116

9.7 km/h aus SSE

8.4 C

10.3 C

10.2 C

10.3 C

0 W/m

0.00 mm

22:55

10.2 C

1006.7 hpa

89 %

3.2 km/h aus 117

11.3 km/h aus SSE

8.5 C

10.3 C

10.2 C

10.3 C

0 W/m

0.00 mm

23:00

10.3 C

1006.6 hpa

89 %

3.2 km/h aus 116

11.3 km/h aus SE

8.5 C

10.4 C

10.3 C

10.4 C

0 W/m

0.00 mm

23:05

10.2 C

1006.6 hpa

89 %

1.6 km/h aus 117

6.4 km/h aus SE

8.5 C

10.3 C

10.2 C

10.3 C

0 W/m

0.00 mm

23:10

10.3 C

1006.6 hpa

89 %

3.2 km/h aus 114

8.0 km/h aus SE

8.5 C

10.4 C

10.3 C

10.4 C

0 W/m

0.00 mm

23:15

10.2 C

1006.3 hpa

89 %

1.6 km/h aus 117

6.4 km/h aus SE

8.5 C

10.3 C

10.2 C

10.3 C

0 W/m

0.00 mm

23:20

10.2 C

1006.3 hpa

88 %

4.8 km/h aus 116

6.4 km/h aus SE

8.3 C

10.2 C

10.1 C

10.3 C

0 W/m

0.00 mm

23:25

10.2 C

1006.3 hpa

88 %

4.8 km/h aus 117

9.7 km/h aus SE

8.3 C

10.2 C

10.1 C

10.3 C

0 W/m

0.00 mm

23:30

10.2 C

1006.1 hpa

88 %

3.2 km/h aus 116

11.3 km/h aus SE

8.3 C

10.3 C

10.2 C

10.3 C

0 W/m

0.00 mm

23:35

10.1 C

1006.1 hpa

88 %

3.2 km/h aus 114

9.7 km/h aus SE

8.2 C

10.2 C

10.1 C

10.2 C

0 W/m

0.00 mm

23:40

10.1 C

1006.1 hpa

88 %

3.2 km/h aus 114

11.3 km/h aus SE

8.2 C

10.2 C

10.1 C

10.2 C

0 W/m

0.00 mm

23:45

10.1 C

1006.0 hpa

88 %

3.2 km/h aus 117

9.7 km/h aus SE

8.2 C

10.2 C

10.1 C

10.2 C

0 W/m

0.00 mm

23:50

10.0 C

1006.0 hpa

88 %

4.8 km/h aus 116

11.3 km/h aus SE

8.1 C

9.9 C

9.8 C

10.1 C

0 W/m

0.00 mm

23:55

10.0 C

1006.0 hpa

88 %

8.0 km/h aus 117

14.5 km/h aus SE

8.1 C

9.1 C

9.0 C

10.1 C

0 W/m

0.00 mm